Time,TemperatureF,DewpointF,PressureIn,WindDirection,WindDirectionDegrees,WindSpeedMPH,WindSpeedGustMPH,Humidity,HourlyPrecipIn,Conditions,Clouds,dailyrainin,SoftwareType,DateUTC
2013-03-10 00:00:00,33.4,32.1,30.54,NE,50,0.0,0.0,95,0.00,,,0.00,Wunderground v.1.15,2013-03-10 08:00:00,
2013-03-10 00:10:00,33.3,32.0,30.54,NE,50,0.0,0.0,95,0.00,,,0.00,Wunderground v.1.15,2013-03-10 08:10:00,
2013-03-10 00:20:00,33.2,31.9,30.53,NE,50,0.0,0.0,95,0.00,,,0.00,Wunderground v.1.15,2013-03-10 08:20:00,
2013-03-10 00:30:00,33.1,31.8,30.53,NE,50,0.0,0.0,95,0.00,,,0.00,Wunderground v.1.15,2013-03-10 08:30:00,
2013-03-10 00:40:00,32.9,31.6,30.54,NE,50,0.0,0.0,95,0.00,,,0.00,Wunderground v.1.15,2013-03-10 08:40:00,
2013-03-10 00:50:00,32.9,31.6,30.54,NE,50,0.0,0.0,95,0.00,,,0.00,Wunderground v.1.15,2013-03-10 08:50:00,
2013-03-10 01:00:00,32.7,31.4,30.54,NE,50,0.0,0.0,95,0.00,,,0.00,Wunderground v.1.15,2013-03-10 09:00:00,
2013-03-10 01:10:00,32.5,31.2,30.54,NE,50,0.0,0.0,95,0.00,,,0.00,Wunderground v.1.15,2013-03-10 09:10:00,
2013-03-10 01:20:00,32.4,31.4,30.53,NE,50,0.0,0.0,96,0.00,,,0.00,Wunderground v.1.15,2013-03-10 09:20:00,
2013-03-10 01:30:00,32.2,31.2,30.54,NE,50,0.0,0.0,96,0.00,,,0.00,Wunderground v.1.15,2013-03-10 09:30:00,
2013-03-10 01:40:00,32.3,31.3,30.54,NE,50,0.0,0.0,96,0.00,,,0.00,Wunderground v.1.15,2013-03-10 09:40:00,
2013-03-10 01:50:00,32.3,31.3,30.54,NE,50,0.0,0.0,96,0.00,,,0.00,Wunderground v.1.15,2013-03-10 09:50:00,
2013-03-10 03:00:00,32.2,31.2,30.54,NE,50,0.0,0.0,96,0.00,,,0.00,Wunderground v.1.15,2013-03-10 10:00:00,
2013-03-10 03:10:00,32.2,31.2,30.53,NE,50,0.0,0.0,96,0.00,,,0.00,Wunderground v.1.15,2013-03-10 10:10:00,
2013-03-10 03:20:00,32.1,31.1,30.53,NE,50,0.0,0.0,96,0.00,,,0.00,Wunderground v.1.15,2013-03-10 10:20:00,
2013-03-10 03:30:00,32.4,31.4,30.53,NE,50,0.0,0.0,96,0.00,,,0.00,Wunderground v.1.15,2013-03-10 10:30:00,
2013-03-10 03:40:00,32.5,31.5,30.53,NE,50,0.0,0.0,96,0.00,,,0.00,Wunderground v.1.15,2013-03-10 10:40:00,
2013-03-10 03:50:00,32.5,31.5,30.53,NE,50,0.0,0.0,96,0.00,,,0.00,Wunderground v.1.15,2013-03-10 10:50:00,
2013-03-10 04:00:00,32.6,31.6,30.54,NE,50,0.0,0.0,96,0.00,,,0.00,Wunderground v.1.15,2013-03-10 11:00:00,
2013-03-10 04:10:00,32.7,31.9,30.53,NE,50,0.0,0.0,97,0.00,,,0.00,Wunderground v.1.15,2013-03-10 11:10:00,
2013-03-10 04:20:00,32.9,32.1,30.53,NE,50,0.0,0.0,97,0.00,,,0.00,Wunderground v.1.15,2013-03-10 11:20:00,
2013-03-10 04:30:00,32.9,31.9,30.53,NE,50,0.0,0.0,96,0.00,,,0.00,Wunderground v.1.15,2013-03-10 11:30:00,
2013-03-10 04:40:00,32.9,32.1,30.53,NE,50,0.0,0.0,97,0.00,,,0.00,Wunderground v.1.15,2013-03-10 11:40:00,
2013-03-10 04:50:00,33.0,32.2,30.53,NE,50,0.0,0.0,97,0.00,,,0.00,Wunderground v.1.15,2013-03-10 11:50:00,
2013-03-10 05:00:00,33.1,32.3,30.53,NE,50,0.0,0.0,97,0.00,,,0.00,Wunderground v.1.15,2013-03-10 12:00:00,
2013-03-10 05:10:00,33.4,32.6,30.53,NE,50,0.0,0.0,97,0.00,,,0.00,Wunderground v.1.15,2013-03-10 12:10:00,
2013-03-10 05:20:00,33.6,32.8,30.53,NE,50,0.0,0.0,97,0.00,,,0.00,Wunderground v.1.15,2013-03-10 12:20:00,
2013-03-10 05:30:00,34.0,33.2,30.53,NE,50,0.0,0.0,97,0.00,,,0.00,Wunderground v.1.15,2013-03-10 12:30:00,
2013-03-10 05:40:00,34.4,33.6,30.54,NE,50,0.0,0.0,97,0.00,,,0.00,Wunderground v.1.15,2013-03-10 12:40:00,
2013-03-10 05:50:00,34.4,33.6,30.54,NE,50,0.0,0.0,97,0.00,,,0.00,Wunderground v.1.15,2013-03-10 12:50:00,
2013-03-10 06:00:00,34.6,33.8,30.55,NE,50,0.0,0.0,97,0.00,,,0.00,Wunderground v.1.15,2013-03-10 13:00:00,
2013-03-10 06:10:00,34.6,33.8,30.54,NE,50,0.0,0.0,97,0.00,,,0.00,Wunderground v.1.15,2013-03-10 13:10:00,
2013-03-10 06:20:00,34.8,34.0,30.54,NE,50,0.0,0.0,97,0.00,,,0.00,Wunderground v.1.15,2013-03-10 13:20:00,
2013-03-10 06:30:00,35.0,34.2,30.54,NE,50,0.0,0.0,97,0.00,,,0.00,Wunderground v.1.15,2013-03-10 13:30:00,
2013-03-10 06:40:00,35.0,34.2,30.53,NE,50,0.0,0.0,97,0.00,,,0.00,Wunderground v.1.15,2013-03-10 13:40:00,
2013-03-10 06:50:00,35.1,34.3,30.53,NE,50,0.0,0.0,97,0.00,,,0.00,Wunderground v.1.15,2013-03-10 13:50:00,
2013-03-10 07:00:00,35.2,34.4,30.53,NE,50,0.0,0.0,97,0.00,,,0.00,Wunderground v.1.15,2013-03-10 14:00:00,
2013-03-10 07:10:00,35.2,34.4,30.53,NE,50,0.0,0.0,97,0.00,,,0.00,Wunderground v.1.15,2013-03-10 14:10:00,
2013-03-10 07:20:00,35.3,34.5,30.53,NE,50,0.0,0.0,97,0.00,,,0.00,Wunderground v.1.15,2013-03-10 14:20:00,
2013-03-10 07:30:00,35.4,34.6,30.52,NE,50,0.0,0.0,97,0.00,,,0.00,Wunderground v.1.15,2013-03-10 14:30:00,
2013-03-10 07:40:00,35.5,34.7,30.53,NE,50,0.0,0.0,97,0.00,,,0.00,Wunderground v.1.15,2013-03-10 14:40:00,
2013-03-10 07:50:00,35.6,34.8,30.52,NE,50,0.0,0.0,97,0.00,,,0.00,Wunderground v.1.15,2013-03-10 14:50:00,
2013-03-10 08:00:00,35.8,35.0,30.52,NE,50,0.0,0.0,97,0.00,,,0.00,Wunderground v.1.15,2013-03-10 15:00:00,
2013-03-10 08:10:00,36.0,35.2,30.52,NE,50,0.0,0.0,97,0.00,,,0.00,Wunderground v.1.15,2013-03-10 15:10:00,
2013-03-10 08:20:00,36.1,35.3,30.53,NE,50,0.0,0.0,97,0.00,,,0.00,Wunderground v.1.15,2013-03-10 15:20:00,
2013-03-10 08:30:00,36.4,35.6,30.52,NE,50,0.0,0.0,97,0.00,,,0.00,Wunderground v.1.15,2013-03-10 15:30:00,
2013-03-10 08:40:00,36.5,35.7,30.52,NE,50,0.0,0.0,97,0.00,,,0.00,Wunderground v.1.15,2013-03-10 15:40:00,
2013-03-10 08:50:00,36.9,36.1,30.52,NE,50,0.0,0.0,97,0.00,,,0.00,Wunderground v.1.15,2013-03-10 15:50:00,
2013-03-10 09:00:00,37.3,36.5,30.51,NE,50,0.0,0.0,97,0.00,,,0.00,Wunderground v.1.15,2013-03-10 16:00:00,
2013-03-10 09:10:00,37.9,37.1,30.52,NE,50,0.0,0.0,97,0.00,,,0.00,Wunderground v.1.15,2013-03-10 16:10:00,
2013-03-10 09:20:00,38.1,37.3,30.52,NE,52,0.0,0.0,97,0.00,,,0.00,Wunderground v.1.15,2013-03-10 16:20:00,
2013-03-10 09:30:00,38.3,37.5,30.51,NE,51,0.0,0.0,97,0.00,,,0.00,Wunderground v.1.15,2013-03-10 16:30:00,
2013-03-10 09:40:00,38.8,38.0,30.51,NE,51,0.0,0.0,97,0.00,,,0.00,Wunderground v.1.15,2013-03-10 16:40:00,
2013-03-10 09:50:00,39.3,38.0,30.52,NE,52,0.0,0.0,95,0.00,,,0.00,Wunderground v.1.15,2013-03-10 16:50:00,
2013-03-10 10:00:00,39.6,37.7,30.51,NE,52,0.0,0.0,93,0.00,,,0.00,Wunderground v.1.15,2013-03-10 17:00:00,
2013-03-10 10:10:00,40.3,38.2,30.51,NE,51,0.0,0.0,92,0.00,,,0.00,Wunderground v.1.15,2013-03-10 17:10:00,
2013-03-10 10:20:00,40.8,38.1,30.51,NE,51,0.0,0.0,90,0.00,,,0.00,Wunderground v.1.15,2013-03-10 17:20:00,
2013-03-10 10:30:00,41.1,37.2,30.51,NE,51,0.0,0.0,86,0.00,,,0.00,Wunderground v.1.15,2013-03-10 17:30:00,
2013-03-10 10:40:00,41.9,38.0,30.51,NE,52,0.0,0.0,86,0.00,,,0.00,Wunderground v.1.15,2013-03-10 17:40:00,
2013-03-10 10:50:00,42.4,37.6,30.51,NE,51,0.0,0.0,83,0.00,,,0.00,Wunderground v.1.15,2013-03-10 17:50:00,
2013-03-10 11:00:00,42.4,37.3,30.51,NE,52,0.0,0.0,82,0.00,,,0.00,Wunderground v.1.15,2013-03-10 18:00:00,
2013-03-10 12:00:00,43.2,40.5,30.51,ESE,123,0.0,0.0,90,0.00,,,0.00,Wunderground v.1.15,2013-03-10 19:00:00,
2013-03-10 12:10:00,42.9,40.2,30.51,SSE,159,0.0,0.0,90,0.00,,,0.01,Wunderground v.1.15,2013-03-10 19:10:00,
2013-03-10 12:20:00,42.9,40.5,30.51,SSE,159,0.0,0.0,91,0.00,,,0.01,Wunderground v.1.15,2013-03-10 19:20:00,
2013-03-10 12:30:00,43.0,40.6,30.51,SSE,159,0.0,0.0,91,0.00,,,0.01,Wunderground v.1.15,2013-03-10 19:30:00,
2013-03-10 12:40:00,43.4,41.2,30.51,SSE,159,0.0,0.0,92,0.00,,,0.01,Wunderground v.1.15,2013-03-10 19:40:00,
2013-03-10 12:50:00,43.7,41.0,30.51,SSE,159,0.0,0.0,90,0.00,,,0.01,Wunderground v.1.15,2013-03-10 19:50:00,
2013-03-10 13:00:00,44.2,41.5,30.51,SSE,159,0.0,0.0,90,0.00,,,0.01,Wunderground v.1.15,2013-03-10 20:00:00,
2013-03-10 13:10:00,44.5,41.7,30.50,SSE,159,0.0,1.0,90,0.00,,,0.01,Wunderground v.1.15,2013-03-10 20:10:00,
2013-03-10 13:20:00,44.3,39.5,30.50,South,186,1.0,1.0,83,0.00,,,0.01,Wunderground v.1.15,2013-03-10 20:20:00,
2013-03-10 13:30:00,44.9,40.7,30.50,South,187,1.0,1.0,85,0.00,,,0.01,Wunderground v.1.15,2013-03-10 20:30:00,
2013-03-10 13:40:00,44.7,40.5,30.50,South,182,1.0,1.0,85,0.00,,,0.01,Wunderground v.1.15,2013-03-10 20:40:00,
2013-03-10 13:50:00,45.0,41.1,30.50,South,182,0.0,0.0,86,0.00,,,0.01,Wunderground v.1.15,2013-03-10 20:50:00,
2013-03-10 14:00:00,45.0,40.5,30.50,SSW,210,1.0,1.0,84,0.00,,,0.01,Wunderground v.1.15,2013-03-10 21:00:00,
2013-03-10 14:10:00,45.4,40.8,30.49,SSW,210,0.0,0.0,84,0.00,,,0.01,Wunderground v.1.15,2013-03-10 21:10:00,
2013-03-10 14:20:00,45.2,40.7,30.50,South,186,1.0,2.0,84,0.00,,,0.01,Wunderground v.1.15,2013-03-10 21:20:00,
2013-03-10 14:30:00,45.1,40.2,30.49,South,181,1.0,1.0,83,0.00,,,0.01,Wunderground v.1.15,2013-03-10 21:30:00,
2013-03-10 14:40:00,45.0,40.1,30.49,SW,236,0.0,1.0,83,0.00,,,0.01,Wunderground v.1.15,2013-03-10 21:40:00,
2013-03-10 14:50:00,45.2,40.7,30.49,South,190,0.0,0.0,84,0.00,,,0.01,Wunderground v.1.15,2013-03-10 21:50:00,
2013-03-10 15:00:00,45.3,40.7,30.48,South,173,0.0,0.0,84,0.00,,,0.01,Wunderground v.1.15,2013-03-10 22:00:00,
2013-03-10 15:10:00,45.2,41.0,30.48,South,181,1.0,3.0,85,0.00,,,0.01,Wunderground v.1.15,2013-03-10 22:10:00,
2013-03-10 15:20:00,45.3,41.1,30.49,South,174,0.0,0.0,85,0.00,,,0.01,Wunderground v.1.15,2013-03-10 22:20:00,
2013-03-10 15:30:00,45.4,40.8,30.49,South,184,1.0,3.0,84,0.00,,,0.01,Wunderground v.1.15,2013-03-10 22:30:00,
2013-03-10 15:40:00,45.4,40.8,30.49,SSW,197,1.0,1.0,84,0.00,,,0.01,Wunderground v.1.15,2013-03-10 22:40:00,
2013-03-10 15:50:00,45.4,41.2,30.49,South,186,1.0,1.0,85,0.00,,,0.01,Wunderground v.1.15,2013-03-10 22:50:00,
2013-03-10 16:00:00,45.4,41.8,30.49,South,169,0.0,0.0,87,0.00,,,0.01,Wunderground v.1.15,2013-03-10 23:00:00,
2013-03-10 16:10:00,45.4,41.8,30.49,South,169,0.0,0.0,87,0.00,,,0.01,Wunderground v.1.15,2013-03-10 23:10:00,
2013-03-10 16:20:00,45.5,42.2,30.49,SSW,197,0.0,1.0,88,0.00,,,0.01,Wunderground v.1.15,2013-03-10 23:20:00,
2013-03-10 16:30:00,45.4,41.8,30.49,SSW,205,1.0,1.0,87,0.00,,,0.01,Wunderground v.1.15,2013-03-10 23:30:00,
2013-03-10 16:40:00,45.4,41.8,30.48,SW,224,0.0,0.0,87,0.00,,,0.01,Wunderground v.1.15,2013-03-10 23:40:00,
2013-03-10 16:50:00,45.2,41.9,30.48,SSW,211,0.0,0.0,88,0.00,,,0.01,Wunderground v.1.15,2013-03-10 23:50:00,
2013-03-10 17:00:00,45.1,42.1,30.47,SSE,158,1.0,1.0,89,0.00,,,0.01,Wunderground v.1.15,2013-03-11 00:00:00,
2013-03-10 17:10:00,45.1,42.1,30.48,SSE,158,0.0,0.0,89,0.00,,,0.01,Wunderground v.1.15,2013-03-11 00:10:00,
2013-03-10 17:20:00,45.0,42.0,30.48,SSE,158,0.0,0.0,89,0.00,,,0.01,Wunderground v.1.15,2013-03-11 00:20:00,
2013-03-10 17:30:00,45.0,41.7,30.48,SSE,158,0.0,0.0,88,0.00,,,0.01,Wunderground v.1.15,2013-03-11 00:30:00,
2013-03-10 17:40:00,44.9,41.6,30.48,SSE,158,0.0,0.0,88,0.00,,,0.01,Wunderground v.1.15,2013-03-11 00:40:00,
2013-03-10 17:50:00,44.7,41.4,30.48,SSE,158,0.0,0.0,88,0.00,,,0.01,Wunderground v.1.15,2013-03-11 00:50:00,
2013-03-10 18:00:00,44.5,41.2,30.48,SSE,158,0.0,0.0,88,0.00,,,0.01,Wunderground v.1.15,2013-03-11 01:00:00,
2013-03-10 18:10:00,44.4,41.4,30.48,SSE,158,0.0,0.0,89,0.00,,,0.01,Wunderground v.1.15,2013-03-11 01:10:00,
2013-03-10 18:20:00,44.3,41.3,30.48,SSE,158,0.0,0.0,89,0.00,,,0.01,Wunderground v.1.15,2013-03-11 01:20:00,
2013-03-10 18:30:00,44.2,41.2,30.48,SSE,158,0.0,0.0,89,0.00,,,0.01,Wunderground v.1.15,2013-03-11 01:30:00,
2013-03-10 18:40:00,44.2,41.2,30.48,SSE,158,0.0,0.0,89,0.00,,,0.01,Wunderground v.1.15,2013-03-11 01:40:00,
2013-03-10 18:50:00,44.1,41.1,30.48,SSE,158,0.0,0.0,89,0.00,,,0.01,Wunderground v.1.15,2013-03-11 01:50:00,
2013-03-10 19:00:00,44.0,41.0,30.48,SSE,158,0.0,0.0,89,0.00,,,0.01,Wunderground v.1.15,2013-03-11 02:00:00,
2013-03-10 19:10:00,43.9,40.9,30.48,SSE,158,0.0,0.0,89,0.00,,,0.01,Wunderground v.1.15,2013-03-11 02:10:00,
2013-03-10 19:20:00,43.8,40.8,30.48,SSE,158,0.0,0.0,89,0.00,,,0.01,Wunderground v.1.15,2013-03-11 02:20:00,
2013-03-10 19:30:00,43.7,40.7,30.48,SSE,158,0.0,0.0,89,0.00,,,0.01,Wunderground v.1.15,2013-03-11 02:30:00,
2013-03-10 19:40:00,43.6,40.9,30.48,SSE,158,0.0,0.0,90,0.00,,,0.01,Wunderground v.1.15,2013-03-11 02:40:00,
2013-03-10 19:50:00,43.5,40.8,30.48,SSE,158,0.0,0.0,90,0.00,,,0.01,Wunderground v.1.15,2013-03-11 02:50:00,
2013-03-10 20:00:00,43.4,40.7,30.48,SSE,158,0.0,0.0,90,0.00,,,0.01,Wunderground v.1.15,2013-03-11 03:00:00,
2013-03-10 20:10:00,43.3,40.6,30.48,SSE,158,0.0,0.0,90,0.00,,,0.01,Wunderground v.1.15,2013-03-11 03:10:00,
2013-03-10 20:20:00,43.2,40.8,30.48,SSE,158,0.0,0.0,91,0.00,,,0.01,Wunderground v.1.15,2013-03-11 03:20:00,
2013-03-10 20:30:00,43.1,40.7,30.48,SSE,158,0.0,0.0,91,0.00,,,0.01,Wunderground v.1.15,2013-03-11 03:30:00,
2013-03-10 20:40:00,43.0,40.6,30.48,SSE,158,0.0,0.0,91,0.00,,,0.01,Wunderground v.1.15,2013-03-11 03:40:00,
2013-03-10 20:50:00,42.9,40.7,30.48,SSE,158,0.0,0.0,92,0.00,,,0.02,Wunderground v.1.15,2013-03-11 03:50:00,
2013-03-10 21:00:00,42.8,40.6,30.48,SSE,158,0.0,0.0,92,0.00,,,0.02,Wunderground v.1.15,2013-03-11 04:00:00,
2013-03-10 21:10:00,42.8,40.6,30.48,SSE,158,0.0,0.0,92,0.00,,,0.02,Wunderground v.1.15,2013-03-11 04:10:00,
2013-03-10 21:20:00,42.7,40.5,30.48,SSE,158,0.0,0.0,92,0.00,,,0.02,Wunderground v.1.15,2013-03-11 04:20:00,
2013-03-10 21:30:00,42.7,40.5,30.48,SSE,158,0.0,0.0,92,0.00,,,0.02,Wunderground v.1.15,2013-03-11 04:30:00,
2013-03-10 21:40:00,42.6,40.4,30.48,SSE,158,0.0,0.0,92,0.00,,,0.02,Wunderground v.1.15,2013-03-11 04:40:00,
2013-03-10 21:50:00,42.6,40.4,30.48,SSE,158,0.0,0.0,92,0.00,,,0.02,Wunderground v.1.15,2013-03-11 04:50:00,
2013-03-10 22:00:00,42.5,40.3,30.48,SSE,158,0.0,0.0,92,0.00,,,0.02,Wunderground v.1.15,2013-03-11 05:00:00,
2013-03-10 22:10:00,42.5,40.3,30.48,SSE,158,0.0,0.0,92,0.00,,,0.02,Wunderground v.1.15,2013-03-11 05:10:00,
2013-03-10 22:20:00,42.4,40.5,30.48,SSE,158,0.0,0.0,93,0.00,,,0.02,Wunderground v.1.15,2013-03-11 05:20:00,
2013-03-10 22:30:00,42.4,40.5,30.48,SSE,158,0.0,0.0,93,0.00,,,0.02,Wunderground v.1.15,2013-03-11 05:30:00,
2013-03-10 22:40:00,42.3,40.4,30.48,SSE,158,0.0,0.0,93,0.00,,,0.02,Wunderground v.1.15,2013-03-11 05:40:00,
2013-03-10 22:50:00,42.3,40.4,30.48,SSE,158,0.0,0.0,93,0.00,,,0.02,Wunderground v.1.15,2013-03-11 05:50:00,
2013-03-10 23:00:00,42.2,40.3,30.47,SSE,158,0.0,0.0,93,0.00,,,0.02,Wunderground v.1.15,2013-03-11 06:00:00,
2013-03-10 23:10:00,42.2,40.3,30.48,SSE,158,0.0,0.0,93,0.00,,,0.02,Wunderground v.1.15,2013-03-11 06:10:00,
2013-03-10 23:20:00,42.1,40.2,30.48,SSE,158,0.0,0.0,93,0.00,,,0.02,Wunderground v.1.15,2013-03-11 06:20:00,
2013-03-10 23:30:00,42.0,40.1,30.48,SSE,158,0.0,0.0,93,0.00,,,0.02,Wunderground v.1.15,2013-03-11 06:30:00,
2013-03-10 23:40:00,42.0,40.1,30.47,SSE,158,0.0,0.0,93,0.00,,,0.02,Wunderground v.1.15,2013-03-11 06:40:00,
2013-03-10 23:50:00,41.9,40.0,30.48,SSE,158,0.0,0.0,93,0.00,,,0.02,Wunderground v.1.15,2013-03-11 06:50:00,